Weather in Kernosivka

Ukraine / Dnipropetrovsk Region     48°57′15″N   35°37′58″E
temp.,
°C
wind,
m/s
gust,
m/s
humid.,
%
clouds,
%
prec.,
mm/h
press.,
hPa
HPBL,
m
9 may, sun
sun900:00+7nw51086100 0.0 10131012
03:00+5nw61286100 0.1 1015737
06:00+5nw81179100 0.0 1015900
09:00+8nnw912645 0.0 10171238
12:00+11nw9114542 0.0 10182134
15:00+13nw91139100 0.0 10202640
18:00+11nnw7105431 0.0 10212092
21:00+6nw49685 0.1 1024199
10 may, mon
mon1000:00+5nw410775 0.0 1025186
03:00+4nw49820 0.0 1026169
06:00+4nw410805 0.0 1026252
09:00+11nnw710540 0.0 10251094
12:00+14n810405 0.0 10242246
15:00+14nnw9104069 0.0 10222416
18:00+13nnw81152100 0.0 10212008
21:00+10nnw71458100 0.0 1020794
11 may, tue
tue1100:00+9nnw101769100 0.1 1017953
03:00+9n91785100 0.6 1015619
06:00+10n81586100 0.0 1014634
09:00+11nne81388100 0.1 1014860
12:00+10ne61075100 0.2 10151340
15:00+11ne7116492 0.2 10161452
18:00+11ne8137118 0.3 10151357
21:00+7ne81383100 0.6 10141362
12 may, wed
wed1200:00+7ene61089100 0.4 10151047
03:00+7e71090100 1.1 1015992
06:00+7e6109399 0.4 1015586
09:00+9se698491 1.1 1015929
12:00+14se7960100 1.3 10141808
15:00+15s61059100 2.9 10131696
18:00+12sse6108598 0.9 1014380
21:00+11sse61288100 2.8 1015554
13 may, thu
thu1300:00+10se388870 0.0 1016210
03:00+10ese3489100 0.0 101699
06:00+9ese379562 0.0 1016145
09:00+16ese6871100 0.0 1015558
12:00+20se7954100 0.0 10141420
15:00+22se7948100 0.0 10131660
18:00+21se61062100 0.0 1012419
21:00+16ese4128514 0.0 1012236